Simultaneous Nadir Overpasses (SNOs) Predictions

Prediction of SNOs between FY3D and AQUA Satellite Orbit:

Table of predicted SNOs for the next 14.0 days since TLE Epoch: 9/2/2023
Index Date (FY3D) Time (FY3D) Lat,Lon (FY3D) SZA (FY3D ) Date (AQUA) Time (AQUA) Lat,Lon (AQUA) SZA (AQUA ) Distance(km) Time Diff (sec)
1 09/04/2023 12:02:14 -79.05, 158.88 107.47 09/04/2023 12:03:21 -79.05, 158.96 107.50 1.85 67
2 09/04/2023 12:52:49 78.66, -31.09 72.00 09/04/2023 12:52:36 78.67, -31.15 72.01 1.44 13
3 09/07/2023 01:47:45 78.92, 133.50 73.28 09/07/2023 01:48:28 78.92, 133.46 73.27 0.79 43
4 09/07/2023 02:38:23 -78.65, -57.38 107.08 09/07/2023 02:37:45 -78.64, -57.29 107.09 2.28 38
5 09/09/2023 15:33:15 -78.77, 108.19 105.99 09/09/2023 15:33:33 -78.77, 108.08 105.98 2.45 18
6 09/09/2023 16:23:54 78.51, -82.89 73.69 09/09/2023 16:22:51 78.51, -82.82 73.70 1.71 63
7 09/12/2023 04:28:13 -79.09, -87.78 104.59 09/12/2023 04:29:25 -79.09, -87.74 104.61 0.96 72
8 09/12/2023 05:18:48 78.72, 82.17 74.91 09/12/2023 05:18:40 78.72, 82.13 74.91 0.87 8
9 09/14/2023 18:13:42 78.92,-112.86 76.14 09/14/2023 18:14:28 78.92,-112.94 76.13 1.72 46



Historial Predications of SNOs between FY3D and AQUA
